Simultaneous Nadir Overpasses (SNOs) Predictions

Prediction of SNOs between GOES-16 and METOP-C Satellite Orbit:

Table of predicted SNOs for the next 14.0 days since TLE Epoch: 2/10/2024
Index Date Time (GOES-16) GOES-16 Lat,Lon METOP-C Lat,Lon Distance(km) Time Diff (sec)
1 02/12/2024 14:27:20 0.03, -75.23 -0.05, -74.78 51.26 80
2 02/14/2024 02:49:03 -0.04, -75.22 -0.97, -79.38 474.10 80
3 02/15/2024 02:25:44 -0.03, -75.23 0.16, -74.40 95.74 80
4 02/16/2024 14:47:15 0.03, -75.28 0.88, -78.95 419.49 80
5 02/17/2024 14:23:57 0.03, -75.29 -0.26, -73.96 150.65 80
6 02/19/2024 02:45:39 -0.03, -75.29 -0.74, -78.57 373.85 80
7 02/20/2024 02:22:20 -0.03, -75.30 0.34, -73.57 196.68 80
8 02/21/2024 14:43:52 0.03, -75.35 0.63, -78.14 317.48 80
9 02/22/2024 14:20:33 0.03, -75.37 -0.46, -73.15 253.72 80
10 02/24/2024 02:42:14 -0.04, -75.39 -0.57, -77.74 269.07 80
